Tracking 19212 objects as of 17-Jul-2018
HD Live streaming from Space Station
objects crossing your sky now

FENGYUN 1C DEB

Track FENGYUN 1C DEB now!
10-day predictions


NORAD ID: 35207
Int'l Code: 1999-025DPP
Perigee: 740.2 km
Apogee: 852.8 km
Inclination: 98.9 °
Period: 100.7 minutes
Semi major axis: 7167 km
RCS: 0.0073 m2 (small)
Launch date: May 10, 1999
Source: People's Republic of China (PRC)
Launch site: Taiyaun Space Center, China (TSC)

Note: This is SATELLITE DEBRIS
aabbcc
Your satellite tracking list
Your tracking list is empty




NASA's NSSDC Master Catalog

Two Line Element Set (TLE):
1 35207U 99025DPP 18197.81725715 +.00000509 +00000-0 +20544-3 0  9996
2 35207 098.8781 206.2972 0078569 330.8184 028.8619 14.30700294260574
Source of the keplerian elements: AFSPC